Погода в Неготке

Россия / Томская область     59°43′36″N   80°38′44″E
темп.,
°C
ветер,
м/с
пор.,
м/с
влажн.,
%
обл.,
%
осадки,
мм/ч
давл.,
гПа
погр.,
м
25 января, пн
пн2501:00−46зсз129653 0.0 104318
04:00−46з119756 0.0 104318
07:00−46з119757 0.0 104418
10:00−46ююз119756 0.0 104418
13:00−42ю119455 0.0 1045126
16:00−40ююв129557 0.0 1044167
19:00−44юв229554 0.0 104518
22:00−44юв229651 0.0 104519
26 января, вт
вт2601:00−44вюв229652 0.0 104525
04:00−44вюв239751 0.0 104439
07:00−44юв259752 0.0 104495
10:00−44юв379774 0.0 1043151
13:00−40юв379587 0.0 1042257
16:00−37юв4794100 0.0 1039289
19:00−36юв4994100 0.0 1037305
22:00−34юв51298100 0.6 1033352
27 января, ср
ср2701:00−32ююв51398100 1.5 1029402
04:00−29ююв51198100 1.1 1026453
07:00−26ююв41097100 2.4 1022412
10:00−23ююв3798100 0.6 1020293
13:00−19ююв3597100 1.4 1018255
16:00−15ю2396100 0.3 1017199
19:00−13сз1397100 0.9 1018116
22:00−15ссз2397100 0.3 1019129
28 января, чт
чт2801:00−17ссз1297100 0.5 102056
04:00−18с129897 0.2 1021136
07:00−19ссв129899 0.8 1021141
10:00−21ссв1298100 0.3 102243
13:00−20св129697 0.3 1022171
16:00−19всв1196100 0.3 1021182
19:00−19всв2399100 1.3 1020158
22:00−19всв2498100 1.2 1018164
29 января, пт
пт2901:00−20всв2498100 1.9 1018168
04:00−22св2497100 0.1 1019177
07:00−23св3598100 0.3 1020219
10:00−25всв3598100 0.4 1021215
13:00−25всв3598100 0.6 1021227
16:00−25св3598100 0.3 1021241
19:00−27св3697100 0.7 1023314
22:00−29ссв3796100 0.2 1027325